Regional Weather Roundup
Issued by NWS Charleston, SC

Current Version | Previous Version | Graphics & Text | Print | Product List | Glossary On
Versions: 1 2 3 4 5 6 7 8 9 10 11 12 13 14 15 16 17 18 19 20 21 22 23 24 25 26 27 28 29 30 31 32 33 34 35 36 37 38 39 40 41 42 43 44 45 46 47 48 49 50
000
ASUS42 KCHS 210925
RWRCHS

REGIONAL WEATHER ROUNDUP
NATIONAL WEATHER SERVICE CHARLESTON SC
400 AM EST SUN DEC 21 2014

NOTE: "FAIR" INDICATES FEW OR NO CLOUDS BELOW 12,000 FEET WITH NO
SIGNIFICANT WEATHER AND/OR OBSTRUCTIONS TO VISIBILITY.

NOT ALL STATIONS ARE QUALITY CONTROLLED BY THE NATIONAL
WEATHER SERVICE. USE DATA WITH CAUTION...ESPECIALLY
DEWPOINT OBSERVATIONS.

SCZ027-030-031-034>040-042>050-211000-
...SOUTHEAST SOUTH CAROLINA...

CITY           SKY/WX    TMP DP  RH WIND       PRES   REMARKS
N CHARLESTON   CLOUDY    45  43  93 N10       30.20S
WATERFRONT PRK NOT AVBL
MOUNT PLEASANT CLOUDY    45  45 100 N6        30.20S FOG
PINOPOLIS        N/A     46  43  87 N7        30.15R
MONCKS CORNER  CLOUDY    46  43  87 NE7       30.20F
SUMMERVILLE    LGT RAIN  45  45 100 N3        30.21F
BEAUFORT MCAS  CLOUDY    49  46  90 N10       30.18F
BEAUFORT ARPT  CLOUDY    48  46  93 NE12      30.17S
HILTON HEAD IS CLOUDY    48  48 100 N7        30.17S
WALTERBORO     CLOUDY    46 N/A N/A N5        30.19F
ALLENDALE      CLOUDY    46  45  93 N6        30.18F

...SOUTHERN MIDLANDS AND PEE DEE...

CITY           SKY/WX    TMP DP  RH WIND       PRES   REMARKS
GEORGETOWN     NOT AVBL
KINGSTREE      NOT AVBL
ORANGEBURG     CLOUDY    44  40  85 NE7       30.22S
BARNWELL       CLOUDY    46  43  87 N7        30.21S
AIKEN          CLOUDY    45  43  93 NE6       30.24S
MANNING        NOT AVBL
COLUMBIA       CLOUDY    45  39  79 NE5       30.22S
SUMTER         NOT AVBL
FLORENCE       CLOUDY    40  36  86 NE7       30.24S WCI  35
MYRTLE BEACH   CLOUDY    43  37  81 N7        30.22F
N MYRTLE BEACH CLOUDY    41  37  86 N8        30.22R

$$

GAZ063-065-086>088-099>101-113>116-118-119-134>141-150-211000-
...SOUTHEAST GEORGIA...

CITY           SKY/WX    TMP DP  RH WIND       PRES   REMARKS
SAVANNAH ARPT  CLOUDY    50  47  89 N6        30.17F
HUNTER AAF     NOT AVBL
FORT STEWART   NOT AVBL
STATESBORO     CLOUDY    48  48 100 NE5       30.18S
SYLVANIA       CLOUDY    47  47 100 NE5       30.19S FOG
CLAXTON        CLOUDY    50  50 100 CALM      30.17F

...CSRA...CENTRAL AND FAR SOUTHEAST GEORGIA...

CITY           SKY/WX    TMP DP  RH WIND       PRES   REMARKS
THOMSON        CLOUDY    48  48 100 NE3       30.25S
AUGUSTA-BUSH   CLOUDY    47  43  86 N7        30.21F
AUGUSTA-DANIEL CLOUDY    47  44  90 NE7       30.21F
SWAINSBORO     CLOUDY    50  50 100 CALM      30.19S
VIDALIA        DRIZZLE   50  50 100 NE6       30.18R
EASTMAN        CLOUDY    52  52 100 E3        30.20S
HAZLEHURST     DRIZZLE   53  53 100 N3        30.15F
ALMA           LGT RAIN  53  51  93 CALM      30.14F FOG
WAYCROSS       LGT RAIN  56  56  97 E5        30.12F
JESUP          LGT RAIN  55  54  94 NE6       30.14F
BAXLEY         DRIZZLE   54  52  94 NE5       30.15S
BRUNSWICK      CLOUDY    54  52  94 NE7       30.13F
SAINT SIMONS   CLOUDY    54  52  93 NE14      30.12F

$$

SCZ027-028-034-036>038-045-046-048>050-GAZ119-141-211000-
...LAKE AND SUPPLEMENTAL COASTAL OBSERVATIONS...

STATION/POSITION TIME  TEMP    WIND        PRES    WAVE   SWELL
                       AIR SEA DIR/SP/G            HT/PER HT/PER/DIR
                 (UTC) (F)     (DEG/KT/KT) (MB)    (FT/S) (FT/S/D)
UPR LAKE MARION  NOT AVBL
WINYAH BAY       0900   43      20/  5     1022.0S
LAKE MURRAY      0900   43      20/  2/  4 1023.0S
ACE BASIN NERRS  0900   47      20/  2     1022.0S
FORT PULASKI     0900   50 56   10/  9/ 10 1021.4F
SAPELO ISLAND    0900   53      20/  9     1020.0S

$$

ANZ835-935-AMZ111-154-330-350-352-354-370-450-454-472-211000-
...C-MAN AND BUOY OBSERVATIONS...

STATION/POSITION TIME  TEMP    WIND        PRES    WAVE   SWELL
                       AIR SEA DIR/SP/G            HT/PER HT/PER/DIR
                 (UTC) (F)     (DEG/KT/KT) (MB)    (FT/S) (FT/S/D)
BUOY 41004       0900   61 70   20/ 19/ 25 1019.9F   6/ 8   2/ 8
BUOY 41008       0900   56 59   40/ 19/ 23 1019.6F   5/ 6   2/110/ 9
FOLLY BEACH CMAN 0900   47     360/ 10/ 13 1022.4S
CAPERS NEARSHORE 0800   48      40/ 16/ 19   N/A
FRIPP NEARSHORE  NOT AVBL


STATION/POSITION TIME  TEMP    WIND        PRES    WAVE   SWELL
                       AIR SEA DIR/SP/G            HT/PER HT/PER/DIR
                 (UTC) (F)     (DEG/KT/KT) (MB)    (FT/S) (FT/S/D)
5E ST. MARYS GA  0900      62                N/A     5/ 6
FRYING PAN BUOY  0900   58 69   50/ 17/ 19 1021.9R   4/ 6   2/190/10
BUOY 41025       0900   49                 1023.7F   3/ 5
CAPE LOOKOUT NC  0900   42      20/ 11/ 13 1023.6R
BUOY 41002       0845   66 71   70/ 19/ 21 1019.6F   6/ 6   2/ 90/10
BUOY 41010       0900   74 76  190/ 12/ 14 1018.0F   2/10   2/ 90/10
ST AUGUSTINE FL  0900   62     360/ 16/ 17 1019.2F


$$



USA.gov is the U.S. government's official web portal to all federal, state and local government web resources and services.